Hourly Weather Lugi

Today, 10 May, Monday

Time Temperature Precipitation Wind Pressure Humidity
00:00 +5°C° 0 mm 3 mps 754 mmHg 75%
01:00 +5°C° 0 mm 3 mps 754 mmHg 73%
02:00 +5°C° 0 mm 3 mps 754 mmHg 71%
03:00 +7°C° 0 mm 3 mps 754 mmHg 71%
04:00 +6°C° 0 mm 4 mps 754 mmHg 71%
05:00 +6°C° 0 mm 4 mps 754 mmHg 70%
06:00 +7°C° 0 mm 4 mps 754 mmHg 68%
07:00 +10°C° 0 mm 4 mps 754 mmHg 66%
08:00 +10°C° 0 mm 5 mps 755 mmHg 64%
09:00 +12°C° 0 mm 5 mps 755 mmHg 61%
10:00 +14°C° 0 mm 5 mps 755 mmHg 58%
11:00 +16°C° 0 mm 5 mps 755 mmHg 55%
12:00 +16°C° 0 mm 5 mps 755 mmHg 54%
13:00 +17°C° 0 mm 5 mps 755 mmHg 53%
14:00 +19°C° 0 mm 5 mps 755 mmHg 52%
15:00 +19°C° 0 mm 5 mps 755 mmHg 54%
16:00 +19°C° 0 mm 5 mps 754 mmHg 57%
17:00 +19°C° 0 mm 4 mps 754 mmHg 60%
18:00 +17°C° 0 mm 4 mps 755 mmHg 67%
19:00 +14°C° 0 mm 3 mps 755 mmHg 74%
20:00 +12°C° 0 mm 3 mps 755 mmHg 81%
21:00 +11°C° 0 mm 3 mps 755 mmHg 82%
22:00 +10°C° 0 mm 3 mps 755 mmHg 83%
23:00 +9°C° 0 mm 3 mps 756 mmHg 85%

Tomorrow, 11 May, Tuesday

Time Temperature Precipitation Wind Pressure Humidity
00:00 +9°C° 0 mm 3 mps 756 mmHg 84%
01:00 +8°C° 0 mm 3 mps 756 mmHg 83%
02:00 +8°C° 0 mm 3 mps 756 mmHg 82%
03:00 +7°C° 0 mm 3 mps 756 mmHg 81%
04:00 +7°C° 0 mm 3 mps 756 mmHg 80%
05:00 +7°C° 0 mm 3 mps 756 mmHg 79%
06:00 +9°C° 0 mm 3 mps 756 mmHg 72%
07:00 +11°C° 0 mm 3 mps 756 mmHg 66%
08:00 +13°C° 0 mm 4 mps 756 mmHg 59%
09:00 +14°C° 0 mm 4 mps 756 mmHg 54%
10:00 +15°C° 0 mm 4 mps 756 mmHg 50%
11:00 +18°C° 0 mm 4 mps 756 mmHg 46%
12:00 +18°C° 0 mm 4 mps 756 mmHg 44%
13:00 +19°C° 0 mm 4 mps 756 mmHg 43%
14:00 +20°C° 0 mm 4 mps 755 mmHg 41%
15:00 +19°C° 0 mm 4 mps 755 mmHg 45%
16:00 +19°C° 0 mm 4 mps 755 mmHg 48%
17:00 +19°C° 0 mm 4 mps 755 mmHg 51%
18:00 +17°C° 0 mm 3 mps 754 mmHg 58%
19:00 +14°C° 0 mm 3 mps 754 mmHg 65%
20:00 +12°C° 0 mm 3 mps 754 mmHg 73%
21:00 +11°C° 0 mm 3 mps 754 mmHg 75%
22:00 +10°C° 0 mm 3 mps 754 mmHg 77%
23:00 +9°C° 0 mm 2 mps 754 mmHg 79%

Day after tomorrow, 12 May, Wednesday

Time Temperature Precipitation Wind Pressure Humidity
00:00 +9°C° 0 mm 2 mps 754 mmHg 82%
01:00 +9°C° 0 mm 2 mps 754 mmHg 85%
02:00 +9°C° 0 mm 2 mps 754 mmHg 88%
03:00 +9°C° 0 mm 2 mps 754 mmHg 90%
04:00 +9°C° 0 mm 2 mps 754 mmHg 92%
05:00 +9°C° 0 mm 2 mps 754 mmHg 94%
06:00 +11°C° 0 mm 3 mps 754 mmHg 88%
07:00 +13°C° 0 mm 3 mps 754 mmHg 83%
08:00 +15°C° 0 mm 4 mps 754 mmHg 77%
09:00 +17°C° 0 mm 4 mps 754 mmHg 69%
10:00 +17°C° 0 mm 5 mps 754 mmHg 61%
11:00 +19°C° 0 mm 5 mps 754 mmHg 54%
12:00 +19°C° 0 mm 5 mps 753 mmHg 50%
13:00 +19°C° 0 mm 4 mps 753 mmHg 46%
14:00 +20°C° 0 mm 4 mps 753 mmHg 43%
15:00 +20°C° 0 mm 4 mps 752 mmHg 44%
16:00 +19°C° 0 mm 3 mps 752 mmHg 45%
17:00 +19°C° 0 mm 2 mps 751 mmHg 47%
18:00 +18°C° 0 mm 2 mps 750 mmHg 53%
19:00 +16°C° 0 mm 2 mps 749 mmHg 59%
20:00 +15°C° 0 mm 2 mps 749 mmHg 65%
21:00 +14°C° 0.4 mm 3 mps 748 mmHg 73%
22:00 +14°C° 0.4 mm 4 mps 747 mmHg 82%
23:00 +14°C° 0.4 mm 5 mps 747 mmHg 90%

13 May, Thursday

Time Temperature Precipitation Wind Pressure Humidity
00:00 +12°C° 0.6 mm 5 mps 746 mmHg 90%
01:00 +9°C° 0.6 mm 6 mps 746 mmHg 90%
02:00 +8°C° 0.6 mm 7 mps 746 mmHg 89%
03:00 +8°C° 0 mm 7 mps 746 mmHg 89%
04:00 +8°C° 0 mm 7 mps 746 mmHg 88%
05:00 +8°C° 0 mm 7 mps 746 mmHg 88%
06:00 +8°C° 0 mm 7 mps 746 mmHg 88%
07:00 +8°C° 0 mm 7 mps 746 mmHg 87%
08:00 +8°C° 0 mm 7 mps 746 mmHg 87%
09:00 +8°C° 0.1 mm 6 mps 746 mmHg 86%
10:00 +8°C° 0.1 mm 6 mps 746 mmHg 86%
11:00 +9°C° 0.1 mm 6 mps 746 mmHg 85%
12:00 +9°C° 0.3 mm 6 mps 746 mmHg 85%
13:00 +9°C° 0.3 mm 6 mps 746 mmHg 85%
14:00 +9°C° 0.3 mm 5 mps 746 mmHg 85%
15:00 +9°C° 0.3 mm 5 mps 746 mmHg 84%
16:00 +9°C° 0.3 mm 5 mps 746 mmHg 83%
17:00 +11°C° 0.3 mm 4 mps 746 mmHg 82%
18:00 +11°C° 0.3 mm 4 mps 746 mmHg 85%
19:00 +10°C° 0.3 mm 4 mps 746 mmHg 87%
20:00 +10°C° 0.3 mm 4 mps 746 mmHg 89%
21:00 +9°C° 0.2 mm 5 mps 746 mmHg 90%
22:00 +9°C° 0.2 mm 5 mps 745 mmHg 90%
23:00 +9°C° 0.2 mm 5 mps 745 mmHg 90%

14 May, Friday

Time Temperature Precipitation Wind Pressure Humidity
00:00 +9°C° 0 mm 5 mps 745 mmHg 91%
01:00 +9°C° 0 mm 5 mps 745 mmHg 91%
02:00 +8°C° 0 mm 4 mps 745 mmHg 91%
03:00 +8°C° 0.1 mm 4 mps 745 mmHg 92%
04:00 +8°C° 0.1 mm 4 mps 745 mmHg 93%
05:00 +8°C° 0.1 mm 4 mps 745 mmHg 94%
06:00 +10°C° 0.1 mm 4 mps 744 mmHg 94%
07:00 +11°C° 0.1 mm 4 mps 744 mmHg 93%
08:00 +11°C° 0.1 mm 4 mps 744 mmHg 92%
09:00 +11°C° 0.4 mm 4 mps 744 mmHg 93%
10:00 +12°C° 0.4 mm 5 mps 743 mmHg 93%
11:00 +12°C° 0.4 mm 5 mps 743 mmHg 94%
12:00 +13°C° 0.2 mm 4 mps 743 mmHg 92%
13:00 +14°C° 0.2 mm 4 mps 743 mmHg 90%
14:00 +15°C° 0.2 mm 4 mps 743 mmHg 88%
15:00 +16°C° 0.2 mm 3 mps 743 mmHg 87%
16:00 +16°C° 0.2 mm 2 mps 742 mmHg 86%
17:00 +16°C° 0.2 mm 2 mps 742 mmHg 86%
18:00 +15°C° 0 mm 2 mps 742 mmHg 88%
19:00 +14°C° 0 mm 1 mps 742 mmHg 91%
20:00 +13°C° 0 mm 1 mps 742 mmHg 94%
21:00 +13°C° 0 mm 1 mps 742 mmHg 94%
22:00 +12°C° 0 mm 1 mps 742 mmHg 95%
23:00 +12°C° 0 mm 2 mps 742 mmHg 96%

15 May, Saturday

Time Temperature Precipitation Wind Pressure Humidity
00:00 +10°C° 0 mm 2 mps 742 mmHg 96%
01:00 +10°C° 0 mm 2 mps 743 mmHg 96%
02:00 +10°C° 0 mm 2 mps 743 mmHg 97%
03:00 +10°C° 0 mm 2 mps 743 mmHg 97%
04:00 +9°C° 0 mm 2 mps 743 mmHg 97%
05:00 +9°C° 0 mm 2 mps 744 mmHg 98%
06:00 +12°C° 0 mm 2 mps 744 mmHg 93%
07:00 +13°C° 0 mm 2 mps 744 mmHg 89%
08:00 +14°C° 0 mm 2 mps 745 mmHg 85%
09:00 +15°C° 0.1 mm 2 mps 745 mmHg 79%
10:00 +16°C° 0.1 mm 2 mps 745 mmHg 74%
11:00 +17°C° 0.1 mm 2 mps 745 mmHg 69%
12:00 +18°C° 0.1 mm 3 mps 746 mmHg 63%
13:00 +19°C° 0.1 mm 3 mps 746 mmHg 57%
14:00 +20°C° 0.1 mm 3 mps 746 mmHg 51%
15:00 +20°C° 0 mm 3 mps 746 mmHg 51%
16:00 +19°C° 0 mm 3 mps 746 mmHg 52%
17:00 +19°C° 0 mm 3 mps 746 mmHg 53%
18:00 +17°C° 0 mm 2 mps 746 mmHg 61%
19:00 +15°C° 0 mm 2 mps 746 mmHg 68%
20:00 +14°C° 0 mm 1 mps 746 mmHg 76%
21:00 +13°C° 0 mm 2 mps 746 mmHg 79%
22:00 +12°C° 0 mm 2 mps 746 mmHg 82%
23:00 +10°C° 0 mm 2 mps 746 mmHg 85%
Show more

We Need Your Consent

Meteoprog and our Service Providers may store and access personal data such as cookies, device identifiers or other similar technologies on your device and process such data to personalise content and ads, as well as provide social media features and to analyse the traffic.

  • Store and/or access information on your device

    Cookies, device identifiers or other information can be stored or accessed on your device for the purposes indicated above.

  • Personalised ads and content, ad and content measurement, audience insights, and products development

    Ads and content can be personalised based on a profile. More data can be added to better personalise ads and content. Ad and content performance can be measured. Insights about the audience who saw the ads and content can be derived. Such data can be used to develop or improve user’s experience, systems and software.

By clicking ‘I Agree’ you will allow the use of indicated cookies, device identifiers, web beacons or other similar technologies. Your settings can be changed in the browser on your device.

For certain purposes, legitimate interests may be relied on, rather than consent. You can read more about this in our Privacy and Cookie Policy.